Location: Gerlach
(40.6516°N, 119.3568°W)
Time: 20:34:30
(UTC-08:00)

SO-50 - Visible Passes

Search period start: 20 February 2024 00:00
Search period end: 01 March 2024 00:00
Orbit: 607 x 661 km, 64.6° (Epoch: 20 February)

Date Brightness Start Highest point End Pass type
(mag) Time Alt. Az. Time Alt. Az. Time Alt. Az.
20 Feb ? 06:16:08 10° SSW 06:20:49 84° ESE 06:25:26 10° NE visible
21 Feb ? 04:59:36 10° SSE 05:03:07 21° ESE 05:06:37 10° ENE visible
22 Feb ? 05:20:36 10° SSW 05:25:06 49° ESE 05:29:33 10° NE visible
23 Feb ? 04:05:35 10° SE 04:07:34 13° ESE 04:09:33 10° E visible
23 Feb ? 05:42:36 10° SW 05:47:15 72° WNW 05:51:51 10° NNE visible
24 Feb ? 04:26:02 13° S 04:29:26 29° ESE 04:33:25 10° NE visible
24 Feb ? 06:05:23 10° WSW 06:09:36 33° NW 06:13:47 10° NNE visible
25 Feb ? 04:48:55 26° SSW 04:51:27 69° ESE 04:56:02 10° NE visible
26 Feb ? 03:34:00 18° ESE 03:34:00 18° ESE 03:36:52 10° ENE visible
26 Feb ? 05:11:30 28° WSW 05:13:40 53° NW 05:18:11 10° NNE visible
27 Feb ? 03:56:20 38° E 03:56:20 38° E 04:00:01 10° NE visible
27 Feb ? 05:33:50 18° W 05:36:05 26° NW 05:39:55 10° N visible
28 Feb ? 04:18:30 64° NNE 04:18:30 64° NNE 04:22:25 10° NNE visible
28 Feb ? 05:56:17 10° WNW 05:58:42 14° NW 06:01:07 10° N visible
29 Feb ? 03:03:03 13° ENE 03:03:03 13° ENE 03:03:43 10° ENE visible
29 Feb ? 04:40:32 38° NW 04:40:32 38° NW 04:44:23 10° NNE visible
